Probability
0 0 0 0 0 0 0 0 0 0 0 6 13 13 13 19 19 26 32 32 29 26 32 35 35 39 39 42 35 35 32 35 29 29 29 16 13 10 10 10 19 19 19 19
0 0 0 0 0 0 0 0 0 10 10 10 13 13 16 26 23 32 29 26 29 29 32 32 35 35 32 32 39 32 32 32 29 29 29 26 23 13 16 13 13 19 19 19
0 0 0 0 0 3 3 10 6 6 10 13 13 16 13 23 26 29 26 26 26 29 35 39 42 32 32 35 35 32 29 29 29 29 32 26 26 13 13 10 16 19 16 13
0 0 0 0 0 3 3 6 6 6 10 13 13 13 13 16 29 29 26 29 26 26 29 29 29 26 32 35 42 32 26 29 29 29 29 23 19 16 10 10 10 10 13 6
0 0 0 0 0 0 6 6 6 13 13 13 16 13 13 10 23 26 23 26 29 26 26 23 29 29 32 29 35 35 29 26 29 29 23 16 10 13 6 6 3 3 6 6
0 0 0 0 0 0 3 3 6 13 10 6 10 3 13 16 19 29 26 26 26 29 29 32 29 23 19 19 19 23 23 23 19 16 16 16 10 6 3 3 3 3 3 6
0 0 0 0 0 0 0 3 6 3 3 3 3 0 13 16 19 19 23 26 29 32 23 26 23 19 16 16 19 23 19 16 16 19 16 16 10 3 3 6 6 3 6 3
0 0 0 0 3 3 0 0 3 3 3 6 6 13 16 19 19 23 19 19 23 23 23 23 23 23 19 19 19 16 16 16 13 19 13 13 6 3 6 6 6 6 6 6
0 0 0 0 0 0 3 6 3 3 3 10 13 16 16 10 13 19 16 19 19 19 19 19 19 23 26 23 23 13 16 16 13 6 3 6 10 10 6 6 10 6 10 6
0 0 0 0 0 3 3 3 3 3 10 10 10 6 10 10 16 13 13 13 16 16 16 16 19 23 23 16 13 10 13 13 13 6 3 0 10 10 13 10 10 10 6 3
0 0 3 3 0 3 0 3 3 6 3 6 6 6 3 6 13 16 13 13 13 16 16 19 19 19 16 16 16 10 10 6 6 6 3 0 6 10 10 10 10 10 6 6
0 0 0 3 3 6 0 0 0 3 0 0 3 3 3 6 10 13 16 16 16 16 16 16 16 16 16 19 19 13 10 6 6 3 0 0 0 3 3 3 0 0 3 3
0 0 0 0 0 3 3 3 0 3 3 3 3 3 3 3 3 13 13 16 16 13 13 16 13 16 13 16 16 10 10 10 6 3 0 0 0 0 0 0 0 0 0 0
0 0 0 0 0 0 3 3 3 3 3 3 3 3 3 3 6 13 13 13 13 13 13 10 13 16 13 10 13 10 10 10 10 6 3 0 0 3 3 0 0 0 0 0
0 0 0 0 0 0 0 0 0 3 3 3 3 3 3 3 3 0 3 6 13 13 10 13 13 10 10 10 13 13 10 10 6 6 3 3 3 3 6 6 3 0 0 0
0 0 0 0 0 0 0 0 0 0 0 3 3 3 3 3 3 0 0 6 10 13 13 13 10 10 10 10 10 13 10 6 6 3 3 3 3 3 6 6 3 3 0 0
0 0 0 0 0 0 0 0 0 0 0 0 3 0 3 6 3 0 3 6 3 10 13 10 10 10 10 10 10 10 10 6 3 3 3 3 3 3 3 3 0 0 0 0
0 0 0 0 0 0 0 0 0 0 0 0 3 6 0 6 3 3 6 6 3 0 3 6 6 6 10 10 10 13 10 6 6 3 3 3 3 3 3 0 0 0 0 0
0 0 0 0 0 0 0 0 0 0 0 0 0 3 3 0 3 6 6 6 3 6 3 3 6 6 10 10 10 6 10 10 3 3 3 3 3 0 0 0 0 0 0 0
0 0 0 0 0 0 0 0 0 0 0 0 0 0 0 3 3 3 3 3 0 3 3 3 3 6 6 6 6 6 6 6 3 3 3 3 0 0 0 0 0 0 0 0
0 0 0 0 0 0 0 0 0 0 0 0 0 0 0 3 3 3 3 3 3 3 3 3 3 3 6 6 6 6 6 3 3 3 3 0 0 0 0 0 0 0 0 0
0 0 0 0 0 0 0 0 0 0 0 0 0 0 3 3 3 3 3 3 3 3 3 3 3 3 3 6 6 6 3 3 3 3 0 0 0 0 0 0 0 0 0 0
0 0 0 0 0 0 0 0 0 0 0 0 0 0 3 3 3 3 3 3 3 3 3 3 3 3 3 3 6 3 3 3 3 0 0 0 0 0 0 0 0 0 0 0
0 0 0 0 0 0 0 0 0 0 0 0 0 0 0 3 3 3 3 3 3 3 3 3 0 0 0 3 6 3 3 3 0 0 0 0 0 0 0 0 0 0 0 0
0 0 0 0 0 0 0 0 0 0 0 0 0 0 0 3 3 3 3 3 3 3 0 0 0 0 3 6 6 3 0 0 0 0 0 0 0 0 0 0 0 3 0 0
0 0 0 0 0 0 0 0 0 0 0 0 0 0 0 3 3 3 3 3 3 0 0 0 0 0 3 3 0 0 0 0 0 0 0 0 0 0 0 3 0 0 0 0
0 0 0 0 0 0 0 0 0 0 0 0 0 0 3 3 3 3 0 0 0 0 0 0 0 0 3 0 0 0 0 0 0 0 0 3 3 3 3 0 0 0 0 0
Height
5797 5800 5802 5804 5807 5810 5811 5814 5817 5819 5822 5824 5826 5827 5828 5829 5830 5831 5832 5832 5832 5833 5834 5835 5836 5836 5837 5837 5837 5837 5836 5836 5834 5833 5831 5830 5828 5826 5825 5824 5824 5823 5822 5821
5790 5793 5796 5798 5800 5803 5805 5808 5810 5813 5816 5818 5819 5821 5822 5824 5825 5826 5827 5827 5827 5828 5829 5830 5830 5830 5831 5832 5832 5832 5831 5830 5830 5829 5827 5825 5823 5822 5821 5820 5819 5818 5817 5816
5784 5786 5788 5791 5794 5797 5799 5801 5804 5806 5810 5811 5813 5815 5817 5818 5819 5820 5821 5822 5822 5823 5824 5824 5824 5824 5825 5827 5827 5826 5826 5825 5825 5823 5822 5821 5819 5818 5816 5815 5815 5814 5812 5810
5777 5780 5782 5787 5788 5790 5792 5795 5797 5800 5803 5805 5807 5809 5811 5812 5813 5814 5815 5816 5817 5817 5817 5818 5819 5819 5819 5820 5821 5821 5821 5820 5819 5818 5816 5815 5815 5814 5812 5811 5810 5809 5807 5805
5770 5772 5775 5780 5781 5783 5785 5788 5791 5793 5796 5798 5800 5802 5803 5805 5807 5808 5810 5810 5811 5811 5811 5811 5812 5813 5813 5813 5814 5815 5815 5815 5814 5813 5812 5810 5809 5809 5808 5807 5806 5804 5803 5801
5764 5766 5769 5774 5775 5776 5779 5781 5784 5786 5788 5791 5793 5795 5797 5799 5801 5802 5803 5804 5805 5806 5806 5806 5806 5807 5807 5807 5808 5809 5809 5809 5808 5807 5807 5806 5805 5804 5803 5802 5801 5800 5798 5796
5757 5758 5762 5766 5768 5770 5772 5775 5777 5779 5781 5784 5786 5788 5791 5792 5794 5795 5797 5798 5799 5799 5800 5800 5800 5801 5802 5802 5803 5803 5803 5803 5802 5802 5801 5800 5800 5799 5798 5797 5796 5794 5793 5792
5751 5753 5758 5759 5761 5764 5765 5767 5770 5772 5774 5777 5779 5781 5783 5785 5787 5789 5790 5791 5792 5793 5794 5794 5794 5795 5796 5796 5797 5797 5797 5797 5796 5796 5795 5794 5794 5793 5792 5791 5790 5789 5788 5786
5745 5749 5751 5752 5754 5756 5758 5760 5763 5766 5768 5770 5772 5774 5776 5779 5780 5782 5783 5784 5785 5786 5787 5788 5788 5789 5790 5790 5790 5791 5791 5791 5790 5790 5789 5788 5788 5787 5786 5785 5785 5784 5782 5781
5738 5740 5743 5745 5747 5749 5751 5754 5756 5759 5761 5764 5766 5768 5770 5772 5774 5775 5776 5777 5778 5779 5780 5781 5781 5782 5783 5784 5784 5784 5784 5784 5784 5783 5783 5782 5782 5781 5780 5780 5779 5778 5777 5776
5731 5734 5736 5738 5740 5742 5745 5747 5750 5753 5755 5757 5760 5762 5764 5766 5767 5768 5770 5770 5771 5773 5774 5774 5775 5775 5776 5776 5777 5777 5777 5776 5776 5776 5776 5776 5775 5775 5774 5774 5773 5772 5771 5770
5726 5728 5730 5732 5734 5736 5739 5741 5743 5746 5748 5750 5752 5754 5756 5758 5760 5761 5763 5764 5765 5766 5767 5767 5768 5768 5769 5769 5770 5770 5770 5769 5769 5770 5770 5769 5769 5768 5767 5767 5767 5766 5765 5764
5720 5722 5723 5726 5728 5730 5732 5734 5736 5739 5740 5742 5744 5746 5748 5751 5752 5754 5755 5757 5757 5758 5759 5760 5760 5761 5762 5762 5763 5763 5763 5762 5762 5763 5763 5763 5762 5762 5761 5761 5760 5760 5759 5758
5715 5716 5718 5720 5722 5723 5725 5728 5730 5732 5734 5735 5736 5738 5741 5742 5744 5746 5747 5748 5749 5750 5751 5752 5753 5754 5754 5755 5755 5755 5755 5756 5755 5755 5755 5755 5755 5755 5754 5754 5753 5753 5752 5751
5709 5711 5712 5714 5715 5717 5719 5721 5723 5725 5727 5728 5729 5731 5733 5735 5736 5737 5738 5740 5741 5742 5743 5744 5745 5746 5746 5747 5747 5748 5748 5748 5748 5748 5748 5748 5748 5748 5747 5747 5747 5746 5745 5744
5703 5704 5706 5707 5709 5711 5712 5714 5716 5718 5720 5721 5722 5724 5725 5727 5729 5730 5731 5732 5733 5734 5735 5736 5737 5738 5738 5739 5739 5740 5740 5741 5741 5741 5741 5741 5741 5741 5741 5740 5740 5739 5739 5738
5698 5699 5700 5702 5703 5704 5706 5708 5710 5711 5713 5714 5715 5716 5718 5720 5721 5722 5723 5724 5725 5726 5727 5728 5729 5730 5730 5730 5731 5732 5732 5732 5733 5733 5733 5734 5734 5734 5734 5734 5733 5732 5732 5730
5693 5694 5695 5696 5697 5698 5700 5702 5703 5705 5706 5708 5709 5710 5711 5713 5714 5715 5716 5717 5717 5718 5719 5720 5720 5721 5722 5722 5723 5723 5724 5724 5725 5726 5726 5726 5726 5726 5726 5726 5726 5725 5724 5723
5688 5689 5689 5690 5691 5693 5694 5695 5696 5698 5699 5701 5702 5703 5704 5706 5707 5708 5708 5709 5710 5710 5711 5712 5712 5713 5713 5713 5714 5715 5715 5716 5717 5718 5718 5719 5719 5718 5718 5718 5717 5717 5715 5714
5683 5683 5684 5685 5686 5687 5687 5688 5689 5691 5692 5694 5695 5697 5698 5699 5700 5701 5701 5702 5702 5703 5704 5704 5704 5705 5705 5705 5706 5706 5707 5708 5709 5709 5710 5710 5711 5710 5710 5709 5709 5708 5707 5706
5678 5678 5679 5680 5681 5682 5682 5683 5684 5685 5686 5688 5689 5691 5692 5692 5693 5693 5694 5694 5695 5695 5696 5696 5697 5697 5698 5698 5698 5699 5699 5700 5701 5701 5701 5702 5702 5702 5701 5701 5700 5699 5698 5697
5673 5673 5674 5674 5675 5676 5677 5677 5678 5679 5680 5682 5683 5684 5685 5685 5686 5686 5686 5687 5687 5688 5688 5689 5689 5690 5690 5691 5691 5691 5691 5691 5692 5692 5692 5692 5693 5693 5693 5692 5691 5690 5689 5688
5668 5668 5668 5668 5669 5671 5672 5672 5673 5673 5675 5676 5677 5678 5678 5678 5679 5679 5680 5680 5680 5681 5681 5682 5682 5683 5683 5683 5683 5683 5683 5684 5684 5684 5684 5684 5684 5684 5684 5684 5683 5682 5681 5680
5664 5664 5664 5664 5664 5665 5666 5667 5668 5668 5669 5670 5671 5671 5672 5672 5673 5673 5673 5673 5673 5674 5674 5675 5675 5675 5676 5676 5676 5676 5676 5676 5676 5676 5676 5676 5676 5676 5676 5675 5675 5674 5673 5671
5660 5659 5659 5659 5660 5661 5661 5662 5662 5663 5664 5664 5665 5666 5666 5666 5667 5667 5667 5667 5667 5668 5668 5668 5669 5669 5669 5668 5668 5668 5668 5668 5668 5668 5668 5668 5668 5667 5667 5667 5666 5666 5665 5663
5655 5655 5655 5655 5656 5656 5657 5657 5657 5658 5659 5659 5659 5660 5660 5660 5661 5661 5661 5661 5661 5662 5662 5662 5662 5662 5662 5661 5661 5661 5661 5660 5660 5660 5660 5659 5659 5659 5659 5658 5658 5657 5656 5655
5651 5651 5651 5651 5651 5652 5652 5652 5653 5653 5654 5654 5654 5654 5654 5655 5655 5655 5655 5655 5655 5656 5656 5656 5655 5655 5655 5655 5654 5654 5653 5653 5653 5652 5652 5651 5651 5650 5650 5650 5649 5649 5648 5647
Wind_Speed
28 28 28 28 27 27 28 28 28 28 26 25 25 24 22 21 21 21 22 20 19 19 19 19 19 19 19 18 18 18 18 18 18 18 18 17 17 17 16 16 16 16 16 17
28 28 28 29 28 28 29 29 28 28 27 25 25 25 24 22 22 22 22 21 20 20 20 20 20 19 19 18 18 19 19 19 18 18 18 17 17 16 16 16 16 17 17 17
27 26 28 29 28 27 28 29 29 29 28 26 25 25 25 24 23 23 23 23 21 21 21 21 20 20 20 19 19 19 19 19 19 19 18 17 16 15 15 16 16 17 17 17
27 26 29 27 27 28 29 29 29 29 29 28 26 26 26 26 25 24 23 24 24 23 21 20 21 21 21 20 19 19 19 19 20 19 18 16 16 16 16 16 17 17 18 17
27 28 28 27 27 28 29 29 29 30 29 29 28 26 27 27 25 25 24 24 24 24 23 22 21 21 21 21 20 19 20 20 19 19 19 17 16 17 17 17 17 17 18 18
28 29 29 28 28 28 29 29 29 30 29 29 29 28 26 25 25 24 25 25 25 25 24 23 23 23 22 21 20 21 20 20 20 19 19 18 17 18 18 18 18 18 18 19
26 27 28 28 29 29 30 29 28 28 29 29 29 27 26 26 25 24 24 25 25 24 24 24 23 23 23 22 21 21 21 21 21 20 20 19 19 19 19 18 18 19 19 19
24 26 26 25 27 29 30 30 29 27 28 29 29 28 27 26 26 25 26 26 26 25 25 25 25 23 23 22 22 22 21 22 22 21 21 21 20 20 20 19 19 19 20 20
24 24 25 25 26 28 30 30 29 29 28 29 30 29 27 26 26 27 27 27 27 26 26 25 24 23 23 23 23 22 22 22 22 23 23 22 21 21 21 21 21 20 20 20
25 24 24 25 25 28 29 30 30 29 28 29 30 29 27 27 26 26 25 26 26 25 25 25 25 24 23 23 24 24 24 23 23 23 23 23 23 22 21 21 21 20 20 20
22 22 24 24 24 25 28 29 29 29 29 29 29 29 28 26 26 26 26 25 24 25 25 25 24 24 24 24 25 25 25 24 24 24 23 23 24 23 22 21 21 21 20 20
22 21 23 24 23 24 25 26 27 29 29 29 29 28 27 27 27 26 26 26 25 25 25 25 25 25 25 24 24 24 25 25 24 23 23 24 24 23 22 22 22 22 21 20
19 20 21 23 24 24 25 25 25 25 26 28 29 29 29 29 29 27 27 27 26 26 26 26 26 25 25 25 24 25 24 24 24 24 24 23 23 22 22 22 21 21 21 21
18 18 18 21 22 23 24 25 24 25 26 26 28 29 28 27 27 27 27 26 26 26 26 26 26 26 26 26 25 25 24 24 24 24 24 23 23 23 22 21 22 22 22 21
20 20 20 21 22 23 24 24 24 24 24 23 24 25 25 25 25 25 25 25 25 25 26 26 26 26 26 26 26 25 25 25 25 24 24 24 23 22 22 22 22 22 21 22
19 20 20 21 21 22 22 21 21 21 21 21 23 24 24 25 25 26 26 26 26 26 26 26 25 25 26 27 27 26 26 26 25 25 24 23 22 21 21 22 22 22 22 23
18 19 20 20 20 20 21 21 21 20 21 21 22 22 23 24 24 25 25 25 25 26 26 26 26 25 25 26 26 26 26 26 25 25 24 23 22 22 22 22 22 23 23 24
17 19 20 19 18 18 19 20 20 21 21 21 21 21 21 22 22 23 24 25 26 26 26 26 26 26 26 26 27 26 26 26 25 24 24 23 23 22 22 23 24 24 24 25
16 16 17 19 18 18 19 20 21 21 21 21 21 21 22 22 22 23 23 23 24 25 24 24 25 26 26 26 26 26 25 25 25 24 24 24 24 24 24 25 26 26 26 25
16 16 17 18 18 18 18 18 19 21 22 21 21 21 21 22 21 22 22 22 23 23 24 24 24 24 24 25 25 24 24 24 24 24 25 25 25 25 25 25 26 26 26 26
16 17 17 18 17 17 17 17 19 20 20 21 20 19 20 20 21 22 22 22 22 23 23 23 23 23 24 24 24 23 23 24 24 25 25 25 26 25 25 25 26 26 26 26
16 16 17 17 17 17 17 17 17 19 19 19 19 19 20 20 21 22 21 22 22 22 22 22 23 23 23 23 23 23 23 23 24 24 25 25 26 25 24 25 25 26 26 25
14 14 15 15 16 17 16 17 17 17 18 18 17 18 19 20 20 20 20 20 20 21 21 22 22 22 22 22 22 22 22 22 23 24 25 24 24 24 24 24 25 25 24 24
13 14 15 14 14 14 14 14 14 15 16 17 17 17 17 18 18 18 18 18 19 19 19 20 20 21 21 21 21 21 22 22 22 23 23 23 24 24 24 23 23 23 23 23
12 12 12 12 13 13 13 13 13 14 15 16 17 17 17 17 17 17 17 16 17 17 17 18 19 19 20 21 21 22 23 22 22 22 23 23 23 23 23 23 23 23 23 23
12 11 11 11 11 11 12 12 13 14 14 15 16 16 16 16 17 17 18 17 17 17 17 18 18 19 19 20 20 21 21 21 21 22 22 22 22 22 23 24 24 23 23 23
11 11 11 11 12 12 12 12 12 13 13 13 14 15 16 16 16 17 17 17 16 17 17 18 19 19 19 19 19 19 20 20 21 22 22 22 22 23 23 23 23 23 23 24
Wind_Direction
229 229 231 233 232 231 232 234 237 237 238 239 240 244 247 249 253 262 264 266 263 263 262 263 262 265 267 270 275 278 279 282 286 290 291 291 291 293 289 287 289 291 293 293
229 228 230 233 233 234 233 234 236 237 237 239 241 245 248 249 252 257 263 261 261 262 263 262 261 261 264 267 272 276 278 280 283 285 289 289 289 289 289 290 290 290 292 292
231 229 230 230 231 232 233 235 236 237 237 239 242 245 248 251 254 256 260 262 260 259 259 263 266 263 263 265 270 273 276 279 281 283 286 286 285 287 286 287 289 292 293 291
232 230 230 230 230 231 234 235 236 237 237 238 241 245 248 252 255 257 259 259 258 257 258 260 263 269 266 265 266 269 273 277 279 281 283 281 281 286 286 286 288 290 293 294
235 234 232 230 232 233 233 235 237 238 238 239 239 244 248 251 254 256 257 258 258 259 262 262 261 264 267 268 265 266 271 274 277 278 278 278 279 283 284 285 287 289 291 291
238 238 237 234 235 237 238 237 237 236 238 238 240 244 249 251 253 255 257 259 260 260 263 265 265 265 265 265 267 269 271 274 276 279 278 276 277 279 281 283 285 288 289 289
238 238 237 235 236 238 240 241 238 236 235 238 240 244 249 253 254 256 259 259 260 261 263 266 267 265 262 263 266 268 270 274 276 279 279 279 277 277 279 281 284 286 288 289
238 239 237 237 237 239 243 243 240 238 237 239 241 244 249 251 255 258 261 262 263 263 262 264 265 265 264 264 266 268 270 273 276 278 279 279 277 277 278 280 281 283 285 287
240 240 240 239 239 239 240 240 240 239 240 242 242 243 249 252 255 257 261 262 262 262 262 264 266 267 266 266 266 267 270 272 274 277 278 278 277 276 276 279 281 282 283 285
239 237 238 240 240 238 238 240 243 243 245 243 242 244 248 252 256 259 261 259 259 260 262 263 264 264 265 266 266 266 268 270 272 274 275 276 277 278 278 279 280 281 282 283
239 240 241 242 241 239 238 240 242 244 246 246 245 245 247 252 254 256 258 260 261 261 262 261 263 264 265 267 268 267 268 268 269 271 273 275 276 277 275 276 277 279 281 281
242 240 239 238 240 240 241 245 247 247 245 246 247 250 252 252 254 256 256 257 259 260 261 262 263 265 266 267 266 267 267 267 269 272 274 275 277 277 277 277 276 277 280 281
241 240 240 239 242 243 242 244 246 249 249 250 250 251 252 253 254 256 258 258 257 258 260 262 264 264 264 265 265 266 268 270 272 272 274 276 276 277 277 275 274 275 278 278
245 244 243 240 242 243 244 247 249 252 253 251 251 249 250 251 254 255 257 257 257 257 257 260 262 263 263 264 266 266 268 271 272 272 273 273 273 274 274 274 275 275 276 277
247 248 247 247 248 249 250 249 250 252 252 249 250 248 248 249 251 253 254 255 256 257 259 260 263 263 263 265 265 267 269 270 271 272 271 273 273 271 273 275 277 278 276 276
248 250 250 250 252 251 250 249 251 252 254 256 255 252 250 251 252 254 256 258 258 258 259 261 264 264 265 267 267 266 268 268 268 269 269 269 269 272 275 275 277 278 277 277
251 251 251 251 254 254 251 248 249 250 253 257 257 255 254 253 253 254 257 258 259 260 261 262 262 266 269 269 267 266 266 267 266 267 267 267 269 272 275 276 277 277 276 277
254 253 250 249 253 252 252 251 250 252 255 258 257 255 255 256 258 257 258 259 260 262 264 264 262 263 267 267 267 266 266 266 266 266 267 269 270 272 275 276 277 277 277 278
255 255 253 252 255 255 257 257 255 253 253 257 257 256 256 258 258 257 259 261 262 262 263 265 265 264 266 267 265 265 264 264 265 266 267 268 269 272 274 276 277 278 276 277
257 258 258 259 259 257 257 257 254 251 251 253 254 255 256 257 259 260 262 263 262 263 264 265 265 265 265 267 267 266 265 264 265 265 266 268 270 274 277 278 277 279 279 279
262 261 261 260 258 256 256 255 253 252 252 252 253 254 256 259 260 261 263 263 262 263 263 263 265 266 265 266 267 267 267 267 267 266 267 269 272 274 277 278 278 279 280 278
268 264 263 260 258 257 256 255 255 254 252 253 254 256 258 261 262 263 264 263 263 263 263 264 264 265 265 266 267 268 269 269 268 268 268 270 272 273 275 277 278 280 280 279
268 265 267 264 259 258 257 256 257 255 253 253 254 256 257 259 261 262 261 260 260 261 263 264 265 266 266 267 267 268 269 268 268 269 272 271 272 274 275 275 277 279 281 281
269 269 267 266 262 257 257 257 256 254 254 255 256 258 259 260 260 261 261 259 259 262 264 263 263 263 264 266 268 269 269 269 269 270 271 271 272 273 273 272 274 276 278 280
271 271 266 261 259 258 258 259 258 258 259 259 258 259 260 260 260 262 262 263 265 266 266 265 264 264 265 267 268 268 269 268 267 268 269 271 272 270 270 271 274 277 280 283
264 264 265 264 261 260 260 261 261 261 261 261 259 260 260 263 265 265 265 268 269 271 270 270 270 270 270 270 269 267 267 267 267 267 270 271 270 270 271 272 273 276 280 283
265 266 268 268 266 264 260 258 257 258 260 262 264 265 265 265 268 269 267 268 270 271 271 272 274 275 274 274 273 272 274 273 270 271 273 274 272 270 271 272 274 276 279 282